Regional Weather Roundup
Issued by NWS Jackson, KY

Home | Current Version | Previous Version | Text Only | Print | Product List | Glossary Off
Versions: 1 2 3 4 5 6 7 8 9 10 11 12 13 14 15 16 17 18 19 20 21 22 23 24 25 26 27 28 29 30 31 32 33 34 35 36 37 38 39 40 41 42 43 44 45 46 47 48 49 50

383
ASUS43 KJKL 020610
RWRJKL

EAST KENTUCKY HOURLY WEATHER ROUNDUP
NATIONAL WEATHER SERVICE JACKSON KY
100 AM EST FRI DEC 02 2016

NOTE: "FAIR" INDICATES FEW OR NO CLOUDS BELOW 12,000 FEET WITH
NO SIGNIFICANT WEATHER AND/OR OBSTRUCTIONS TO VISIBILITY.

* THESE REPORTS ARE NOT UNDER NWS QUALITY CONTROL AND MAY NOT
  REPORT WEATHER SUCH AS PRECIPITATION AND FOG.

KYZ079-080-083-085-087-088-110-112-115-119-120-020700
...EASTERN KENTUCKY...

CITY           SKY/WX    TMP DP  RH WIND       PRES   REMARKS
JACKSON        CLEAR     36  27  69 W5        30.07S WCI  32
6HR MIN TEMP:  34; 6HR MAX TEMP:  41;

LONDON         CLEAR     31  26  82 CALM      30.09S
6HR MIN TEMP:  30; 6HR MAX TEMP:  39;

SOMERSET*      CLEAR     30  28  93 CALM      30.12R
MONTICELLO*    CLEAR     24  22  91 W12       30.13R WCI  13
6HR MIN TEMP:  24; 6HR MAX TEMP:  33;

WILLIAMSBURG*  CLEAR     28  28 100 CALM      30.10S
MIDDLESBORO*   CLEAR     30  30  99 CALM      30.12R FOG
6HR MIN TEMP:  30; 6HR MAX TEMP:  39;

HARLAN APT*    MOCLDY    32  30  93 CALM      30.09S
PIKE CO APT*     N/A     36  29  76 SW3       30.07S
BIG SANDY APT* CLEAR     37  29  73 W3        30.07S
6HR MIN TEMP:  37; 6HR MAX TEMP:  42;

MOREHEAD APT*  CLEAR     34  27  75 CALM      30.10R
ASHLAND*       CLEAR     36  28  75 CALM      30.05F
$$

KYZ035-036-041-042-044-050-067-078-099-020700
...CENTRAL KENTUCKY...

CITY           SKY/WX    TMP DP  RH WIND       PRES   REMARKS
MT STERLING*   CLEAR     32  28  86 W3        30.10S
FLEMING/MASON* CLEAR     31  27  83 SW5       30.09S WCI  26
DANVILLE*      CLEAR     30  28  93 NW3       30.10S
LEXINGTON      CLEAR     33  26  75 CALM      30.09S
6HR MIN TEMP:  33; 6HR MAX TEMP:  40;

FRANKFORT      CLEAR     32  25  75 SW3       30.09R
6HR MIN TEMP:  30; 6HR MAX TEMP:  40;

LOUISVILLE     PTCLDY    36  28  73 SW5       30.11R WCI  32
6HR MIN TEMP:  36; 6HR MAX TEMP:  42;

LEBANON*         N/A     34  27  75 CALM      30.11S
GLASGOW*       CLEAR     30  30 100 CALM      30.12S
BOWLING GREEN  CLEAR     34  28  79 CALM      30.14R
6HR MIN TEMP:  33; 6HR MAX TEMP:  45;

$$

KYZ091>093-OHZ055-061-077-WVZ005-015-034-035-042-020700
...SOUTHERN OHIO/WEST VIRGINIA...

CITY           SKY/WX    TMP DP  RH WIND       PRES   REMARKS
COVINGTON      CLOUDY    34  29  82 SW3       30.06R
COLUMBUS       CLOUDY    38  30  73 W9        30.03R WCI  31
DAYTON         CLOUDY    37  29  72 W9        30.04S WCI  30
WILMINGTON     CLOUDY    36  28  73 NW7       30.04F WCI  30
HUNTINGTON     CLEAR     38  28  67 W6        30.05F WCI  33
CHARLESTON     CLOUDY    42  30  62 SW7       30.04S
PINEVILLE*     CLEAR     32  29  89 MISG      30.10R
BECKLEY        CLOUDY    36  28  73 W6        30.01S WCI  31
BLUEFIELD      CLOUDY    32  26  78 W8        30.02S WCI  25
LOGAN CO APT*    N/A     37  30  75 CALM      30.05R
$$

VAZ002-007-008-TNZ017-027-036-066-071-020700
...SOUTHWEST VIRGINIA/EAST TENNESSEE...

CITY           SKY/WX    TMP DP  RH WIND       PRES   REMARKS
WISE*          CLEAR     32  28  86 W3        30.05F
JONESVILLE*      N/A     28  28 100 CALM      30.11S
ABINGDON*      CLEAR     33  31  92 CALM      30.06F
BRISTOL        CLOUDY    31  29  92 CALM      30.08F
MORRISTOWN*    CLEAR     36  30  80 SW3       30.08S
SEVIERVILLE*   CLEAR     28  27  93 CALM      30.10S
KNOXVILLE      CLEAR     39  29  67 CALM      30.09S
OAK RIDGE      CLEAR     35  29  78 CALM      30.12R
CROSSVILLE     CLEAR     29  26  89 W6        30.10R WCI  23
NASHVILLE      CLEAR     35  29  78 S3        30.15R
$$

...KEY TO REMARKS...
VSB - VISIBILITY IN MILES
WCI - WIND CHILL INDEX
HX  - HEAT INDEX

$$




USA.gov is the U.S. government's official web portal to all federal, state and local government web resources and services.